STARLINK-34528, 64479

Orbit data source: Space-Track

STARLINK-34528, 64479 is a payload satellite owned by SpaceX/Seattle (US) in LEO that was launched on Mon, 23 Jun 2025 UTC via an FALCON 9 launch vehicle from the Air Force Eastern Test Range (AFETR). Payload-class satellites include a variety of spacecraft equipped with specific instruments for various scientific and technological missions. These include communications satellites like Starlink; space stations such as the ISS; scientific satellites like the Hubble; Earth observation satellites from companies like Planet Labs, Umbra, and HawkEye 360; GPS; miniature CubeSats for education and research; and military/defense satellites.

Loading next visibility...
Identifier
64479, 2025-133H
Orbit
LEO
Country
Flag of USUS
Related business
Manufacturer
SpaceX/Seattle
Mission
Operational Commercial Communications
Bus & Motor
STARLINK V2MO, Unknown motor
Mass
575 kg wet, ~530 kg dry
Launch date (UTC)
2025-06-23 (1 year ago)
Launch vehicle
FALCON 9
Launch site
Air Force Eastern Test Range (AFETR)
Object type
Payload
Rocket body
Debris
Shape & HBR
Box + 2 Pan, 17.7 m
Radar Cross Section
36.964 m², Large (>1 m²)

Expand to show TLE details & history
Last TLE update: 1 day ago

TLE from 1 day ago
0 STARLINK-34528
1 64479U 25133H   26170.90532756  .00022092  00000-0  66261-3 0  9996
2 64479  53.1605 358.7860 0000628  90.4377 269.6698 15.34420641 56866
Epoch: 2026-06-19T21:43Z
TLE epoch observation values (Epoch: 2026-06-19T21:43:40.301Z)
Latitude
0.00003°
Longitude
124.7405°
Altitude
463.546 km
Speed
7.636 km/s
True Right ascension
23h 55m 08s
True Declination
0° 00' 00"
Sunlit
Object was in daylight at epoch
Visualization orbit readout
Latitude
Unknown
Longitude
Unknown
Altitude
Unknown
Speed
Unknown
Apparent Right ascension
Unknown
Apparent Declination
Unknown
Sunlit
N/A
Visualization observer readout
Local Sidereal Time
08:41:52
Azimuth
Unknown
Elevation
Unknown
Doppler factor
Unknown
Orbital elements
Apogee altitude
463.328 km
Perigee altitude
462.469 km
Semi-major axis
6,841.036 km
Eccentricity
0.00006
Inclination
53.1605°
RAAN
358.786°
Arg. of periapsis
90.4377°
True anomaly
269.6626°
Mean anomaly
269.6698°
Eccentric anomaly
269.6662°
Mean motion
3.83584 °/min
Orbital period
93.85 mins
BSTAR
0.00066261
Loading maneuver chart data...
Computing Atmospheric mass density...
Loading historical data...
Loading historical data...
Loading historical data...
Loading historical data...
Loading historical data...
Loading historical data...
Loading historical data...

Documentation

Showing up to 5 results
|